STARLINK-31906, 59842

Orbit data source: Space-Track

STARLINK-31906, 59842 is a payload satellite owned by SpaceX/Seattle (US) in LEO that was launched on Thu, 23 May 2024 UTC via an FALCON 9 launch vehicle from the Air Force Eastern Test Range (AFETR). Payload-class satellites include a variety of spacecraft equipped with specific instruments for various scientific and technological missions. These include communications satellites like Starlink; space stations such as the ISS; scientific satellites like the Hubble; Earth observation satellites from companies like Planet Labs, Umbra, and HawkEye 360; GPS; miniature CubeSats for education and research; and military/defense satellites.

Loading next visibility...
Identifier
59842, 2024-097H
Orbit
LEO
Country
Flag of USUS
Related business
Manufacturer
SpaceX/Seattle
Mission
Operational Commercial Communications
Bus & Motor
STARLINK V2M, Unknown motor
Mass
730 kg wet, ~700 kg dry
Launch date (UTC)
2024-05-23 (2 years ago)
Launch vehicle
FALCON 9
Launch site
Air Force Eastern Test Range (AFETR)
Object type
Payload
Rocket body
Debris
Shape & HBR
Box + 2 Pan, 17.7 m
Radar Cross Section
33.884 m², Large (>1 m²)

Expand to show TLE details & history
Last TLE update: 2 days ago

TLE from 2 days ago
0 STARLINK-31906
1 59842U 24097H   26171.40008285  .00000340  00000-0  21886-4 0  9990
2 59842  43.0047  54.4265 0001291 262.3227  97.7478 15.27574541117621
Epoch: 2026-06-20T09:36Z
TLE epoch observation values (Epoch: 2026-06-20T09:36:07.158Z)
Latitude
-0.00002°
Longitude
1.78141°
Altitude
482.961 km
Speed
7.626 km/s
True Right ascension
03h 37m 42s
True Declination
0° 00' 00"
Sunlit
Object was in daylight at epoch
Visualization orbit readout
Latitude
Unknown
Longitude
Unknown
Altitude
Unknown
Speed
Unknown
Apparent Right ascension
Unknown
Apparent Declination
Unknown
Sunlit
N/A
Visualization observer readout
Local Sidereal Time
21:29:54
Azimuth
Unknown
Elevation
Unknown
Doppler factor
Unknown
Orbital elements
Apogee altitude
485.896 km
Perigee altitude
484.124 km
Semi-major axis
6,863.147 km
Eccentricity
0.00013
Inclination
43.0047°
RAAN
54.4265°
Arg. of periapsis
262.3227°
True anomaly
97.76246°
Mean anomaly
97.7478°
Eccentric anomaly
97.75513°
Mean motion
3.81732 °/min
Orbital period
94.31 mins
BSTAR
0.000021886
Loading maneuver chart data...
Computing Atmospheric mass density...
Loading historical data...
Loading historical data...
Loading historical data...
Loading historical data...
Loading historical data...
Loading historical data...
Loading historical data...

Documentation

Showing up to 5 results
|